Regional Weather Roundup
Issued by NWS

Home | Current Version | Previous Version | Text Only | Print | Product List | Glossary On
Versions: 1 2 3 4 5 6 7 8 9 10 11 12 13 14 15 16 17 18 19 20 21 22 23 24 25 26 27
000
ASUS45 KPSR 231410
RWRAZ

ARIZONA HOURLY REGIONAL WEATHER ROUNDUP
NATIONAL WEATHER SERVICE PHOENIX AZ
700 AM MST FRI FEB 23 2018

NOTE: FAIR INDICATES FEW OR NO CLOUDS BELOW 12,000 FEET WITH NO
SIGNIFICANT WEATHER AND/OR OBSTRUCTIONS TO VISIBILITY.

AZZ001>003-036-231500-
NORTHWEST ARIZONA

CITY           SKY/WX    TMP DP  RH WIND       PRES   REMARKS
BULLHEAD CITY  PTCLDY    46  21  36 E7        30.06R
KINGMAN        CLOUDY    38  22  52 SW12      30.00S WCI  30
$$

AZZ004>008-015-016-018-231500-
NORTH CENTRAL ARIZONA

CITY           SKY/WX    TMP DP  RH WIND       PRES   REMARKS
GRAND CANYON   LGT SNOW  22  21  96 W9G28     29.93R VSB 3/4 WCI  12
WILLIAMS       LGT SNOW  25  21  86 SW16      29.92R VSB 1   WCI  12
PRESCOTT       MOCLDY    33  22  63 SW17      29.99R WCI  22
FLAGSTAFF      LGT SNOW  23  19  85 SW20G28   29.93S FOG     WCI   8
PAYSON         MOCLDY    28  18  64 SE5       30.04S WCI  23
PAGE           LGT SNOW  29  28  96 S9        29.96S FOG     WCI  20
$$

AZZ009>014-017-231500-
NORTHEAST ARIZONA

CITY           SKY/WX    TMP DP  RH WIND       PRES   REMARKS
WINSLOW        PTCLDY    20  10  65 VRB3      30.02R
SAINT JOHNS    CLEAR     19  12  74 SW3       30.01S
WINDOW ROCK    CLEAR     17  12  80 CALM      30.01R
SHOW LOW       CLEAR     27  14  59 S14G21    30.01S WCI  15
$$

AZZ540-542>544-546-548-231500-
GREATER PHOENIX AREA

CITY           SKY/WX    TMP DP  RH WIND       PRES   REMARKS
PHOENIX        PTCLDY    42  28  57 E7        30.10R
BUCKEYE        CLEAR     37  23  56 E6        30.11S WCI  33
GLENDALE       PTCLDY    39  30  70 CALM      30.12S
LUKE AFB       CLEAR     38  26  62 CALM      30.09S
DEER VALLEY    CLEAR     42  25  50 E7        30.09S
SCOTTSDALE     CLEAR     40  27  59 CALM      30.11S
MESA-GATEWAY   PTCLDY    37  25  60 SE6       30.12S WCI  33
CHANDLER       CLEAR     37  27  65 E3        30.11S
$$

AZZ539-553-231500-
SOUTHWEST MARICOPA COUNTY AND PINAL COUNTY

CITY           SKY/WX    TMP DP  RH WIND       PRES   REMARKS
CASA GRANDE      N/A     36  24  62 CALM      30.12S
GILA BEND      FAIR      36  20  52 SE9       30.11S WCI  29
$$

AZZ503-504-507>509-231500-
SOUTHEAST ARIZONA

CITY           SKY/WX    TMP DP  RH WIND       PRES   REMARKS
TUCSON         CLEAR     35  29  78 S7        30.13R WCI  29
DAVIS-MONTHAN  CLEAR     33  28  82 SE8       30.11R WCI  26
RYAN FIELD     CLEAR     32  30  93 CALM      30.14R
NOGALES        CLEAR     29  25  85 CALM      30.10R
SIERRA VISTA   CLEAR     32  23  69 CALM      30.10S
DOUGLAS        CLEAR     25  22  88 E3        30.11S
SAFFORD        CLEAR     28  23  81 CALM      30.10R
$$

AZZ532-231500-
SOUTHWEST ARIZONA

CITY           SKY/WX    TMP DP  RH WIND       PRES   REMARKS
YUMA           CLEAR     47  34  60 CALM      30.12S
$$

CAZ041-043-047-048-061-525>527-560>570-231500-
SOUTHERN CALIFORNIA

CITY           SKY/WX    TMP DP  RH WIND       PRES   REMARKS
DOWNTOWN L.A.  CLEAR     46  33  60 CALM      30.16R
L.A. AIRPORT   PTCLDY    48  32  53 NW10      30.18R
SAN DIEGO      MOCLDY    54  39  57 NW15G24   30.22R
BURBANK        CLEAR     44  26  49 N8        30.16R
ONTARIO        MOCLDY    43  38  82 SW6       30.13R
RIVERSIDE      PTCLDY    44  40  85 CALM      30.15R
PALM SPRINGS   CLEAR     47  33  58 VRB5      30.08S
EL CENTRO NAS  PTCLDY    50  31  48 SW12      30.14S
IMPERIAL       CLEAR     49  33  54 W9        30.12S
BLYTHE         CLEAR     48  33  56 W12       30.08F
NEEDLES        CLOUDY    49  22  34 W3        30.06R
$$

NVZ020-UTZ003-231500-
SOUTHERN NEVADA-UTAH

CITY           SKY/WX    TMP DP  RH WIND       PRES   REMARKS
LAS VEGAS      PTCLDY    42  21  43 SW8       29.99R
SALT LAKE CITY LGT SNOW  30  27  88 N6        29.92R FOG     WCI  24
$$

NMZ009-TXZ055-231500-
NEW MEXICO-WEST TEXAS

CITY           SKY/WX    TMP DP  RH WIND       PRES   REMARKS
ALBUQUERQUE    PTCLDY    25  17  72 N10       30.07R WCI  15
EL PASO        PTCLDY    40  25  55 SW3       30.09R
$$


........................KEY........................
SKY/WX - SKY CONDITION/WEATHER
TMP    - TEMPERATURE IN FAHRENHEIT
DP     - DEW POINT IN FAHRENHEIT
RH     - RELATIVE HUMIDITY IN PERCENT
WIND   - DIRECTION AND SPEED IN MILES PER HOUR (MPH)
VRB    - VARIABLE WIND DIRECTION
PRES   - MEAN SEA LEVEL PRESSURE IN INCHES OF MERCURY
         F - FALLING PRESSURE   R - RISING PRESSURE
         S - STEADY PRESSURE
VSB    - VISIBILITY IN MILES
HX     - HEAT INDEX IN FAHRENHEIT
WCI    - WIND CHILL INDEX IN FAHRENHEIT
TC     - TEMPERATURE IN CELSIUS WHICH IS ALSO KNOWN AS
         TEMPERATURE IN CENTIGRADE
AFB    - AIR FORCE BASE
         LUKE AFB IS LUKE AIR FORCE BASE
         DAVIS-MONTHAN IS DAVIS-MONTHAN AIR FORCE BASE
NAS    - NAVAL AIR STATION
         EL CENTRO NAS IS EL CENTRO NAVAL AIR STATION
N/A    - NOT AVAILABLE





USA.gov is the U.S. government's official web portal to all federal, state and local government web resources and services.